Weather History for KCNM - December, 2012

Change the Weather History Date:

Saturday, December 8, 2012

  Actual Average Record
Temperature  
Mean Temperature 56 °F -  
Max Temperature 72 °F 60 °F 83 °F (1970)
Min Temperature 39 °F 30 °F 5 °F (2005)
Degree Days  
Heating Degree Days 10    
Growing Degree Days 6 (Base 50)    
Moisture  
Dew Point 25 °F    
Average Humidity 33    
Maximum Humidity 55    
Minimum Humidity 16    
Precipitation  
Precipitation 0.00 in - - ()
Sea Level Pressure  
Sea Level Pressure 29.77 in    
Wind  
Wind Speed 8 mph (West)    
Max Wind Speed 29 mph    
Max Gust Speed 36 mph    
Visibility 10 miles    
Events      
Averages and records for this station are not official NWS values.
T = Trace of Precipitation, MM = Missing Value Source: NWS Daily Summary

Daily Weather History Graph

Daily Weather History Graph

Search for Another Location

Airport or City:

Trip Planner

Search our weather history database for the weather conditions in past years. The results will help you decide how hot, cold, wet, or windy it might be!

Date:

Astronomy

Dec. 08, 2012 Rise Set
Actual Time 6:46 AM MST 4:51 PM MST
Civil Twilight 6:19 AM MST 5:18 PM MST
Nautical Twilight 5:48 AM MST 5:49 PM MST
Astronomical Twilight 5:19 AM MST 6:19 PM MST
Moon 1:28 AM MST (12/8) 1:10 PM MST (12/8)
Length of Visible Light 10h 59m
Length of Day
10h 05m
Waning Crescent, 27% of the Moon is Illuminated
Dec 8
Waning Crescent
Dec 13
New
Dec 19
First Quarter
Dec 28
Full
Jan 4
Last Quarter

Hourly Weather History & Observations

Time (MST) Temp. Windchill Dew Point Humidity Pressure Visibility Wind Dir Wind Speed Gust Speed Precip Events Conditions
12:53 AM 50.0 °F - 27.0 °F 41% 29.77 in 10.0 mi South 3.5 mph - N/A   Clear
1:53 AM 42.1 °F - 25.0 °F 51% 29.78 in 10.0 mi Calm Calm - N/A   Clear
2:53 AM 42.1 °F 39.2 °F 25.0 °F 51% 29.79 in 10.0 mi NNE 4.6 mph - N/A   Clear
3:53 AM 39.0 °F 33.4 °F 24.1 °F 55% 29.81 in 10.0 mi WNW 8.1 mph - N/A   Clear
4:53 AM 39.9 °F 34.5 °F 25.0 °F 55% 29.81 in 10.0 mi WNW 8.1 mph - N/A   Clear
5:53 AM 39.9 °F 35.8 °F 25.0 °F 55% 29.84 in 10.0 mi WNW 5.8 mph - N/A   Clear
6:53 AM 39.9 °F 33.9 °F 25.0 °F 55% 29.85 in 10.0 mi NW 9.2 mph - N/A   Clear
7:53 AM 45.0 °F - 25.0 °F 46% 29.86 in 10.0 mi Calm Calm - N/A   Clear
8:53 AM 57.0 °F - 26.1 °F 30% 29.84 in 10.0 mi Variable 3.5 mph - N/A   Clear
9:53 AM 59.0 °F - 27.0 °F 29% 29.83 in 10.0 mi ESE 3.5 mph - N/A   Clear
10:53 AM 69.1 °F - 28.0 °F 22% 29.80 in 10.0 mi West 16.1 mph 23.0 mph N/A   Clear
11:53 AM 71.1 °F - 26.1 °F 19% 29.75 in 10.0 mi WSW 23.0 mph 33.4 mph N/A   Clear
12:53 PM 72.0 °F - 25.0 °F 17% 29.70 in 10.0 mi West 28.8 mph 35.7 mph N/A   Clear
1:53 PM 72.0 °F - 24.1 °F 17% 29.70 in 10.0 mi WSW 18.4 mph 29.9 mph N/A   Clear
2:53 PM 72.0 °F - 23.0 °F 16% 29.69 in 10.0 mi WSW 24.2 mph 27.6 mph N/A   Clear
3:53 PM 70.0 °F - 21.0 °F 16% 29.70 in 10.0 mi West 13.8 mph 24.2 mph N/A   Clear
4:53 PM 64.0 °F - 23.0 °F 21% 29.71 in 10.0 mi WSW 10.4 mph - N/A   Clear
5:53 PM 63.0 °F - 24.1 °F 23% 29.73 in 10.0 mi SSW 10.4 mph - N/A   Clear
6:53 PM 60.1 °F - 25.0 °F 26% 29.75 in 10.0 mi SW 8.1 mph - N/A   Clear
7:53 PM 59.0 °F - 25.0 °F 27% 29.75 in 10.0 mi West 9.2 mph - N/A   Clear
8:53 PM 55.9 °F - 25.0 °F 30% 29.74 in 10.0 mi WSW 4.6 mph - N/A   Clear
9:53 PM 55.9 °F - 25.0 °F 30% 29.74 in 10.0 mi West 6.9 mph - N/A   Clear
10:53 PM 59.0 °F - 25.0 °F 27% 29.72 in 10.0 mi NNW 4.6 mph - N/A   Clear
11:53 PM 57.9 °F - 25.0 °F 28% 29.71 in 10.0 mi Variable 4.6 mph - N/A   Clear